User: anonymous   Login
Location: Bernadets
(43.3537°N, 0.3167°E)
Time: 16:29:47
(UTC+00:00)
Language:

CZ-2C R/B - Orbit

View from above orbital plane
View from above orbital plane
View from above satellite
View from above satellite

Ground track
Ground track

The orbit data is extracted from the following two-line orbital elements,

1 31114U 07010B   22023.20027166  .00000035  00000-0  34706-4 0  9993
2 31114  98.2288 206.4576 0059718   2.8256 357.3247 14.19388140765965
Epoch (UTC): 23 January 2022 04:48:23
Eccentricity: 0.0059718
inclination: 98.2288°
perigee height: 784 km
apogee height: 870 km
right ascension of ascending node: 206.4576°
argument of perigee: 2.8256°
revolutions per day: 14.19388140
mean anomaly at epoch: 357.3247°
orbit number at epoch: 76596

The dashed part of the orbit path shows where the satellite is in the earth's shadow,  

DLR